START_TIME,STEP,MOV.,M35,t_acc.,PL05,t_acc.,PL06,t_acc.,PL07,t_acc.
1979-07-07 09:00:24.520 ,0,0,1.,4.8,2016.,4.8,126.,4.8,37.,4.8
1979-07-07 09:00:29.320 ,0,0,2.,4.8,1952.,4.8,156.,4.8,37.,4.8
1979-07-07 09:00:34.120 ,0,0,0.,4.8,1952.,4.8,164.,4.8,45.,4.8
1979-07-07 09:00:38.920 ,0,0,0.,4.8,1856.,4.8,140.,4.8,33.,4.8
1979-07-07 09:00:43.720 ,0,0,1.,4.8,1856.,4.8,152.,4.8,52.,4.8
1979-07-07 09:00:48.520 ,0,0,0.,4.8,1824.,4.8,168.,4.8,51.,4.8
1979-07-07 09:00:53.320 ,0,0,1.,4.8,1696.,4.8,144.,4.8,50.,4.8
1979-07-07 09:00:58.120 ,0,0,0.,4.8,1664.,4.8,152.,4.8,39.,4.8
1979-07-07 09:01:02.920 ,0,0,0.,4.8,1664.,4.8,168.,4.8,51.,4.8
1979-07-07 09:01:07.720 ,0,0,1.,4.8,1536.,4.8,132.,4.8,51.,4.8
1979-07-07 09:01:12.520 ,0,0,1.,4.8,1536.,4.8,164.,4.8,36.,4.8
1979-07-07 09:01:17.320 ,0,0,1.,4.8,1376.,4.8,144.,4.8,46.,4.8
1979-07-07 09:01:22.120 ,0,0,2.,4.8,1408.,4.8,140.,4.8,42.,4.8
1979-07-07 09:01:26.920 ,0,0,0.,4.8,1376.,4.8,136.,4.8,35.,4.8
1979-07-07 09:01:31.720 ,0,0,1.,4.8,1312.,4.8,148.,4.8,41.,4.8
1979-07-07 09:01:36.520 ,1,0,1.,4.8,1312.,4.8,160.,4.8,36.,4.8
1979-07-07 09:01:41.320 ,1,0,2.,4.8,1344.,4.8,136.,4.8,41.,4.8
1979-07-07 09:01:46.120 ,1,0,1.,4.8,784.,4.8,114.,4.8,25.,4.8
1979-07-07 09:01:50.920 ,1,0,1.,4.8,848.,4.8,112.,4.8,30.,4.8
1979-07-07 09:01:55.720 ,1,0,0.,4.8,800.,4.8,144.,4.8,24.,4.8
1979-07-07 09:02:00.520 ,1,0,0.,4.8,832.,4.8,122.,4.8,22.,4.8
1979-07-07 09:02:05.320 ,1,0,1.,4.8,800.,4.8,140.,4.8,24.,4.8
1979-07-07 09:02:10.120 ,1,0,1.,4.8,784.,4.8,140.,4.8,27.,4.8
1979-07-07 09:02:14.920 ,1,0,1.,4.8,832.,4.8,128.,4.8,39.,4.8
1979-07-07 09:02:19.720 ,1,0,0.,4.8,848.,4.8,114.,4.8,34.,4.8
1979-07-07 09:02:24.520 ,2,0,1.,4.8,832.,4.8,92.,4.8,31.,4.8
1979-07-07 09:02:29.320 ,2,0,2.,4.8,928.,4.8,104.,4.8,35.,4.8
1979-07-07 09:02:34.120 ,2,0,0.,4.8,960.,4.8,126.,4.8,43.,4.8
1979-07-07 09:02:38.920 ,2,0,2.,4.8,1024.,4.8,114.,4.8,32.,4.8
1979-07-07 09:02:43.720 ,2,0,0.,4.8,960.,4.8,132.,4.8,41.,4.8
1979-07-07 09:02:48.520 ,2,0,0.,4.8,864.,4.8,108.,4.8,26.,4.8
1979-07-07 09:02:53.320 ,2,0,0.,4.8,912.,4.8,136.,4.8,29.,4.8
1979-07-07 09:02:58.120 ,2,0,0.,4.8,960.,4.8,124.,4.8,27.,4.8
1979-07-07 09:03:02.920 ,2,0,1.,4.8,912.,4.8,136.,4.8,26.,4.8
1979-07-07 09:03:07.720 ,2,0,1.,4.8,880.,4.8,108.,4.8,37.,4.8
1979-07-07 09:03:12.520 ,3,0,1.,4.8,1008.,4.8,136.,4.8,32.,4.8
1979-07-07 09:03:17.320 ,3,0,2.,4.8,992.,4.8,136.,4.8,30.,4.8
1979-07-07 09:03:22.120 ,3,0,2.,4.8,1536.,4.8,228.,4.8,47.,4.8
1979-07-07 09:03:26.920 ,3,0,0.,4.8,1536.,4.8,228.,4.8,52.,4.8
1979-07-07 09:03:31.720 ,3,0,0.,4.8,1568.,4.8,232.,4.8,47.,4.8
1979-07-07 09:03:36.520 ,0,0,1.,4.8,1664.,4.8,248.,4.8,58.,4.8
1979-07-07 09:03:41.320 ,0,0,0.,4.8,1632.,4.8,232.,4.8,43.,4.8
1979-07-07 09:03:46.120 ,0,0,2.,4.8,1664.,4.8,252.,4.8,48.,4.8
1979-07-07 09:03:50.920 ,0,0,1.,4.8,1728.,4.8,228.,4.8,48.,4.8
1979-07-07 09:03:55.720 ,0,0,3.,4.8,1664.,4.8,280.,4.8,39.,4.8
1979-07-07 09:04:08.920 ,0,0,,0,,0,,0,,0
1979-07-07 09:04:13.720 ,0,0,,0,,0,,0,,0
1979-07-07 09:04:18.520 ,0,0,2.,4.8,2048.,4.8,376.,4.8,54.,4.8
1979-07-07 09:04:23.320 ,0,0,1.,4.8,2176.,4.8,368.,4.8,48.,4.8
1979-07-07 09:04:28.120 ,0,0,3.,4.8,2176.,4.8,320.,4.8,51.,4.8
1979-07-07 09:04:24.520 ,0,0,2.,4.8,2048.,4.8,368.,4.8,57.,4.8
1979-07-07 09:04:29.320 ,0,0,1.,4.8,2048.,4.8,392.,4.8,51.,4.8
1979-07-07 09:04:34.120 ,0,0,0.,4.8,2112.,4.8,352.,4.8,63.,4.8
1979-07-07 09:04:38.920 ,0,0,4.,4.8,2048.,4.8,336.,4.8,68.,4.8
1979-07-07 09:04:43.720 ,0,0,3.,4.8,2112.,4.8,368.,4.8,57.,4.8
1979-07-07 09:04:48.520 ,5,0,1.,4.8,2016.,4.8,408.,4.8,64.,4.8
1979-07-07 09:04:53.320 ,5,0,1.,4.8,2112.,4.8,360.,4.8,66.,4.8
1979-07-07 09:04:58.120 ,5,0,1.,4.8,2304.,4.8,472.,4.8,63.,4.8
1979-07-07 09:05:02.920 ,5,0,5.,4.8,2304.,4.8,512.,4.8,49.,4.8
1979-07-07 09:05:07.720 ,5,0,2.,4.8,2304.,4.8,488.,4.8,57.,4.8
1979-07-07 09:05:12.520 ,5,0,4.,4.8,2240.,4.8,488.,4.8,66.,4.8
1979-07-07 09:05:17.320 ,5,0,2.,4.8,2176.,4.8,488.,4.8,64.,4.8
1979-07-07 09:05:22.120 ,5,0,1.,4.8,2304.,4.8,488.,4.8,64.,4.8
1979-07-07 09:05:26.920 ,5,0,1.,4.8,2304.,4.8,472.,4.8,72.,4.8
1979-07-07 09:05:31.720 ,5,0,2.,4.8,2368.,4.8,464.,4.8,62.,4.8
1979-07-07 09:05:36.520 ,6,0,3.,4.8,2304.,4.8,464.,4.8,68.,4.8
1979-07-07 09:05:41.320 ,6,0,2.,4.8,2240.,4.8,512.,4.8,62.,4.8
1979-07-07 09:05:46.120 ,6,0,1.,4.8,2880.,4.8,416.,4.8,88.,4.8
1979-07-07 09:05:50.920 ,6,0,1.,4.8,2880.,4.8,432.,4.8,72.,4.8
1979-07-07 09:05:55.720 ,6,0,1.,4.8,2880.,4.8,408.,4.8,68.,4.8
1979-07-07 09:06:00.520 ,6,0,2.,4.8,2752.,4.8,392.,4.8,70.,4.8
1979-07-07 09:06:05.320 ,6,0,5.,4.8,2752.,4.8,400.,4.8,68.,4.8
1979-07-07 09:06:10.120 ,6,0,3.,4.8,2688.,4.8,376.,4.8,66.,4.8
1979-07-07 09:06:14.920 ,6,0,2.,4.8,2496.,4.8,408.,4.8,80.,4.8
1979-07-07 09:06:19.720 ,6,0,1.,4.8,2496.,4.8,384.,4.8,55.,4.8
1979-07-07 09:06:24.520 ,7,0,5.,4.8,2496.,4.8,376.,4.8,62.,4.8
1979-07-07 09:06:29.320 ,7,0,4.,4.8,2432.,4.8,352.,4.8,82.,4.8
1979-07-07 09:06:34.120 ,7,0,0.,4.8,64.,4.8,7.,4.8,0.,4.8
1979-07-07 09:06:38.920 ,7,0,0.,4.8,31.,4.8,0.,4.8,0.,4.8
1979-07-07 09:06:43.720 ,7,0,0.,4.8,29.,4.8,0.,4.8,0.,4.8
1979-07-07 09:06:48.520 ,7,0,0.,4.8,29.,4.8,0.,4.8,0.,4.8
1979-07-07 09:06:53.320 ,7,0,0.,4.8,27.,4.8,0.,4.8,0.,4.8
1979-07-07 09:06:58.120 ,7,0,0.,4.8,21.,4.8,1.,4.8,1.,4.8
1979-07-07 09:07:02.920 ,7,0,0.,4.8,31.,4.8,2.,4.8,0.,4.8
1979-07-07 09:07:07.720 ,7,0,0.,4.8,24.,4.8,0.,4.8,0.,4.8
1979-07-07 09:07:12.520 ,3,1,0.,4.8,528.,4.8,72.,4.8,28.,4.8
1979-07-07 09:07:17.320 ,3,1,3.,4.8,2240.,4.8,320.,4.8,66.,4.8
1979-07-07 09:07:22.120 ,3,1,2.,4.8,2048.,4.8,336.,4.8,62.,4.8
1979-07-07 09:07:26.920 ,3,1,0.,4.8,2112.,4.8,368.,4.8,72.,4.8
1979-07-07 09:07:31.720 ,3,1,0.,4.8,1824.,4.8,280.,4.8,55.,4.8
1979-07-07 09:07:36.520 ,0,1,2.,4.8,1248.,4.8,204.,4.8,36.,4.8
1979-07-07 09:07:41.320 ,0,1,1.,4.8,864.,4.8,128.,4.8,30.,4.8
1979-07-07 09:07:46.120 ,0,1,0.,4.8,1056.,4.8,152.,4.8,39.,4.8
1979-07-07 09:07:50.920 ,0,1,2.,4.8,1248.,4.8,188.,4.8,46.,4.8
1979-07-07 09:07:55.720 ,0,1,0.,4.8,1344.,4.8,164.,4.8,50.,4.8
1979-07-07 09:08:00.520 ,4,1,1.,4.8,1152.,4.8,136.,4.8,54.,4.8
1979-07-07 09:08:05.320 ,4,1,0.,4.8,992.,4.8,144.,4.8,35.,4.8
1979-07-07 09:08:10.120 ,4,1,1.,4.8,912.,4.8,128.,4.8,32.,4.8
1979-07-07 09:08:14.920 ,4,1,2.,4.8,1344.,4.8,212.,4.8,45.,4.8
1979-07-07 09:08:19.720 ,4,1,0.,4.8,1824.,4.8,272.,4.8,64.,4.8
1979-07-07 09:08:24.520 ,7,1,2.,4.8,2176.,4.8,368.,4.8,82.,4.8
1979-07-07 09:08:29.320 ,7,1,0.,4.8,2048.,4.8,416.,4.8,84.,4.8
1979-07-07 09:08:34.120 ,7,1,5.,4.8,2176.,4.8,344.,4.8,59.,4.8
1979-07-07 09:08:38.920 ,7,1,0.,4.8,544.,4.8,94.,4.8,17.,4.8
1979-07-07 09:08:43.720 ,7,1,0.,4.8,29.,4.8,2.,4.8,0.,4.8
1979-07-07 09:08:48.520 ,3,1,0.,4.8,528.,4.8,64.,4.8,13.,4.8
1979-07-07 09:08:53.320 ,3,1,0.,4.8,2112.,4.8,312.,4.8,68.,4.8
1979-07-07 09:08:58.120 ,3,1,2.,4.8,2048.,4.8,392.,4.8,66.,4.8
1979-07-07 09:09:02.920 ,3,1,0.,4.8,1888.,4.8,376.,4.8,70.,4.8
1979-07-07 09:09:07.720 ,3,1,1.,4.8,1632.,4.8,272.,4.8,59.,4.8
1979-07-07 09:09:12.520 ,0,1,2.,4.8,1248.,4.8,168.,4.8,42.,4.8
1979-07-07 09:09:17.320 ,0,1,1.,4.8,992.,4.8,140.,4.8,46.,4.8
1979-07-07 09:09:22.120 ,0,1,1.,4.8,1088.,4.8,164.,4.8,47.,4.8
1979-07-07 09:09:26.920 ,0,1,4.,4.8,1280.,4.8,148.,4.8,48.,4.8
1979-07-07 09:09:31.720 ,0,1,1.,4.8,1344.,4.8,144.,4.8,47.,4.8
1979-07-07 09:09:36.520 ,4,1,1.,4.8,1184.,4.8,148.,4.8,34.,4.8
1979-07-07 09:09:41.320 ,4,1,0.,4.8,1056.,4.8,152.,4.8,31.,4.8
1979-07-07 09:09:46.120 ,4,1,1.,4.8,912.,4.8,144.,4.8,39.,4.8
1979-07-07 09:09:50.920 ,4,1,1.,4.8,1184.,4.8,204.,4.8,45.,4.8
1979-07-07 09:09:55.720 ,4,1,1.,4.8,1568.,4.8,264.,4.8,49.,4.8
1979-07-07 09:10:00.520 ,7,1,1.,4.8,1824.,4.8,296.,4.8,74.,4.8
1979-07-07 09:10:05.320 ,7,1,1.,4.8,2048.,4.8,352.,4.8,80.,4.8
1979-07-07 09:10:10.120 ,7,1,3.,4.8,2176.,4.8,368.,4.8,70.,4.8
1979-07-07 09:10:14.920 ,7,1,1.,4.8,592.,4.8,72.,4.8,14.,4.8
1979-07-07 09:10:19.720 ,7,1,0.,4.8,26.,4.8,1.,4.8,1.,4.8
1979-07-07 09:10:24.520 ,3,1,0.,4.8,528.,4.8,86.,4.8,15.,4.8
1979-07-07 09:10:29.320 ,3,1,2.,4.8,2176.,4.8,360.,4.8,74.,4.8
1979-07-07 09:10:34.120 ,3,1,3.,4.8,2048.,4.8,416.,4.8,82.,4.8
1979-07-07 09:10:38.920 ,3,1,1.,4.8,2112.,4.8,288.,4.8,74.,4.8
1979-07-07 09:10:43.720 ,3,1,1.,4.8,1792.,4.8,288.,4.8,59.,4.8
1979-07-07 09:10:48.520 ,0,1,0.,4.8,1408.,4.8,204.,4.8,36.,4.8
1979-07-07 09:10:53.320 ,0,1,0.,4.8,992.,4.8,128.,4.8,30.,4.8
1979-07-07 09:10:58.120 ,0,1,2.,4.8,1088.,4.8,160.,4.8,40.,4.8
1979-07-07 09:11:02.920 ,0,1,0.,4.8,1024.,4.8,168.,4.8,41.,4.8
1979-07-07 09:11:07.720 ,0,1,3.,4.8,1088.,4.8,164.,4.8,57.,4.8
1979-07-07 09:11:12.520 ,4,1,0.,4.8,1008.,4.8,144.,4.8,37.,4.8
1979-07-07 09:11:17.320 ,4,1,2.,4.8,1008.,4.8,132.,4.8,40.,4.8
1979-07-07 09:11:22.120 ,4,1,0.,4.8,992.,4.8,132.,4.8,28.,4.8
1979-07-07 09:11:26.920 ,4,1,2.,4.8,1472.,4.8,176.,4.8,45.,4.8
1979-07-07 09:11:31.720 ,4,1,1.,4.8,1920.,4.8,280.,4.8,56.,4.8
1979-07-07 09:11:36.520 ,7,1,2.,4.8,2240.,4.8,384.,4.8,60.,4.8
1979-07-07 09:11:41.320 ,7,1,0.,4.8,2048.,4.8,448.,4.8,68.,4.8
1979-07-07 09:11:46.120 ,7,1,1.,4.8,2176.,4.8,288.,4.8,82.,4.8
1979-07-07 09:11:50.920 ,7,1,1.,4.8,624.,4.8,68.,4.8,23.,4.8
1979-07-07 09:11:55.720 ,7,1,0.,4.8,29.,4.8,0.,4.8,0.,4.8
1979-07-07 09:12:00.520 ,3,1,1.,4.8,576.,4.8,72.,4.8,11.,4.8
1979-07-07 09:12:05.320 ,3,1,0.,4.8,2304.,4.8,264.,4.8,76.,4.8
1979-07-07 09:12:10.120 ,3,1,1.,4.8,2048.,4.8,440.,4.8,68.,4.8
1979-07-07 09:12:14.920 ,3,1,1.,4.8,2240.,4.8,352.,4.8,66.,4.8
1979-07-07 09:12:19.720 ,3,1,1.,4.8,2048.,4.8,288.,4.8,59.,4.8
1979-07-07 09:12:24.520 ,0,1,1.,4.8,1376.,4.8,216.,4.8,45.,4.8
1979-07-07 09:12:29.320 ,0,1,4.,4.8,1088.,4.8,152.,4.8,27.,4.8
1979-07-07 09:12:34.120 ,0,1,0.,4.8,928.,4.8,152.,4.8,41.,4.8
1979-07-07 09:12:38.920 ,0,1,0.,4.8,1056.,4.8,156.,4.8,40.,4.8
1979-07-07 09:12:43.720 ,0,1,3.,4.8,1280.,4.8,160.,4.8,53.,4.8
1979-07-07 09:12:48.520 ,4,1,0.,4.8,1152.,4.8,172.,4.8,52.,4.8
1979-07-07 09:12:53.320 ,4,1,2.,4.8,992.,4.8,148.,4.8,47.,4.8
1979-07-07 09:12:58.120 ,4,1,2.,4.8,1216.,4.8,144.,4.8,42.,4.8
1979-07-07 09:13:02.920 ,4,1,2.,4.8,1664.,4.8,216.,4.8,56.,4.8
1979-07-07 09:13:07.720 ,4,1,1.,4.8,2176.,4.8,400.,4.8,78.,4.8
1979-07-07 09:13:12.520 ,7,1,6.,4.8,2368.,4.8,432.,4.8,90.,4.8
1979-07-07 09:13:17.320 ,7,1,2.,4.8,2016.,4.8,336.,4.8,80.,4.8
1979-07-07 09:13:22.120 ,7,1,1.,4.8,2112.,4.8,244.,4.8,92.,4.8
1979-07-07 09:13:26.920 ,7,1,1.,4.8,672.,4.8,74.,4.8,24.,4.8
1979-07-07 09:13:31.720 ,7,1,0.,4.8,28.,4.8,0.,4.8,0.,4.8
1979-07-07 09:13:36.520 ,3,1,0.,4.8,640.,4.8,70.,4.8,21.,4.8
1979-07-07 09:13:41.320 ,3,1,7.,4.8,2368.,4.8,320.,4.8,90.,4.8
1979-07-07 09:13:46.120 ,3,1,4.,4.8,2176.,4.8,368.,4.8,94.,4.8
1979-07-07 09:13:50.920 ,3,1,4.,4.8,2624.,4.8,488.,4.8,74.,4.8
1979-07-07 09:13:55.720 ,3,1,2.,4.8,2432.,4.8,416.,4.8,86.,4.8
1979-07-07 09:14:00.520 ,0,1,2.,4.8,1920.,4.8,256.,4.8,78.,4.8
1979-07-07 09:14:05.320 ,0,1,1.,4.8,1280.,4.8,176.,4.8,57.,4.8
1979-07-07 09:14:10.120 ,0,1,0.,4.8,1152.,4.8,204.,4.8,56.,4.8
1979-07-07 09:14:14.920 ,0,1,1.,4.8,1952.,4.8,192.,4.8,59.,4.8
1979-07-07 09:14:19.720 ,0,1,0.,4.8,2304.,4.8,244.,4.8,64.,4.8
1979-07-07 09:14:24.520 ,4,1,2.,4.8,1952.,4.8,240.,4.8,56.,4.8
1979-07-07 09:14:29.320 ,4,1,1.,4.8,1248.,4.8,208.,4.8,61.,4.8
1979-07-07 09:14:34.120 ,4,1,2.,4.8,1280.,4.8,180.,4.8,57.,4.8
1979-07-07 09:14:38.920 ,4,1,2.,4.8,2016.,4.8,304.,4.8,70.,4.8
1979-07-07 09:14:43.720 ,4,1,0.,4.8,2432.,4.8,440.,4.8,86.,4.8
1979-07-07 09:14:48.520 ,7,1,3.,4.8,2816.,4.8,504.,4.8,88.,4.8
1979-07-07 09:14:53.320 ,7,1,4.,4.8,2304.,4.8,352.,4.8,94.,4.8
1979-07-07 09:14:58.120 ,7,1,2.,4.8,2432.,4.8,304.,4.8,120.,4.8
1979-07-07 09:15:02.920 ,7,1,1.,4.8,656.,4.8,88.,4.8,17.,4.8
1979-07-07 09:15:07.720 ,7,1,0.,4.8,32.,4.8,0.,4.8,1.,4.8
1979-07-07 09:15:12.520 ,3,1,0.,4.8,656.,4.8,76.,4.8,22.,4.8
1979-07-07 09:15:17.320 ,3,1,2.,4.8,2368.,4.8,312.,4.8,96.,4.8
1979-07-07 09:15:22.120 ,3,1,0.,4.8,2240.,4.8,360.,4.8,92.,4.8
1979-07-07 09:15:26.920 ,3,1,0.,4.8,3136.,4.8,496.,4.8,98.,4.8
1979-07-07 09:15:31.720 ,3,1,3.,4.8,2944.,4.8,456.,4.8,76.,4.8
1979-07-07 09:15:36.520 ,0,1,1.,4.8,1952.,4.8,304.,4.8,72.,4.8
1979-07-07 09:15:41.320 ,0,1,1.,4.8,1184.,4.8,192.,4.8,72.,4.8
1979-07-07 09:15:46.120 ,0,1,1.,4.8,1184.,4.8,200.,4.8,55.,4.8
1979-07-07 09:15:50.920 ,0,1,4.,4.8,1664.,4.8,244.,4.8,50.,4.8
1979-07-07 09:15:55.720 ,0,1,2.,4.8,1984.,4.8,288.,4.8,63.,4.8
1979-07-07 09:16:00.520 ,4,1,1.,4.8,1664.,4.8,236.,4.8,56.,4.8
1979-07-07 09:16:05.320 ,4,1,0.,4.8,1120.,4.8,180.,4.8,46.,4.8
1979-07-07 09:16:10.120 ,4,1,3.,4.8,1088.,4.8,184.,4.8,66.,4.8
1979-07-07 09:16:14.920 ,4,1,0.,4.8,2112.,4.8,312.,4.8,74.,4.8
1979-07-07 09:16:19.720 ,4,1,3.,4.8,2880.,4.8,464.,4.8,86.,4.8
1979-07-07 09:16:24.520 ,7,1,3.,4.8,3200.,4.8,496.,4.8,120.,4.8
1979-07-07 09:16:29.320 ,7,1,4.,4.8,2560.,4.8,464.,4.8,112.,4.8
1979-07-07 09:16:34.120 ,7,1,3.,4.8,2752.,4.8,432.,4.8,88.,4.8
1979-07-07 09:16:38.920 ,7,1,0.,4.8,784.,4.8,100.,4.8,23.,4.8
1979-07-07 09:16:43.720 ,7,1,0.,4.8,38.,4.8,1.,4.8,0.,4.8
1979-07-07 09:16:48.520 ,3,1,3.,4.8,640.,4.8,100.,4.8,24.,4.8
1979-07-07 09:16:53.320 ,3,1,4.,4.8,2624.,4.8,408.,4.8,108.,4.8
1979-07-07 09:16:58.120 ,3,1,8.,4.8,2944.,4.8,544.,4.8,184.,4.8
1979-07-07 09:17:02.920 ,3,1,7.,4.8,4032.,4.8,640.,4.8,148.,4.8
1979-07-07 09:17:07.720 ,3,1,2.,4.8,3776.,4.8,576.,4.8,116.,4.8
1979-07-07 09:17:12.520 ,0,1,1.,4.8,2688.,4.8,392.,4.8,96.,4.8
1979-07-07 09:17:17.320 ,0,1,1.,4.8,2112.,4.8,336.,4.8,128.,4.8
1979-07-07 09:17:22.120 ,0,1,2.,4.8,1440.,4.8,256.,4.8,64.,4.8
1979-07-07 09:17:26.920 ,0,1,0.,4.8,1632.,4.8,244.,4.8,62.,4.8
1979-07-07 09:17:31.720 ,0,1,1.,4.8,1920.,4.8,320.,4.8,72.,4.8
1979-07-07 09:17:36.520 ,0,0,0.,4.8,1696.,4.8,256.,4.8,47.,4.8
1979-07-07 09:17:41.320 ,0,0,0.,4.8,1536.,4.8,272.,4.8,80.,4.8
1979-07-07 09:17:46.120 ,0,0,3.,4.8,2176.,4.8,384.,4.8,110.,4.8
1979-07-07 09:17:50.920 ,0,0,2.,4.8,2816.,4.8,464.,4.8,100.,4.8
1979-07-07 09:17:55.720 ,0,0,2.,4.8,3648.,4.8,528.,4.8,110.,4.8
1979-07-07 09:18:00.520 ,0,0,2.,4.8,4480.,4.8,640.,4.8,160.,4.8
1979-07-07 09:18:05.320 ,0,0,12.,4.8,5504.,4.8,816.,4.8,212.,4.8
1979-07-07 09:18:10.120 ,0,0,5.,4.8,4352.,4.8,624.,4.8,172.,4.8
1979-07-07 09:18:14.920 ,0,0,0.,4.8,1056.,4.8,152.,4.8,38.,4.8
1979-07-07 09:18:19.720 ,0,0,0.,4.8,47.,4.8,1.,4.8,0.,4.8
1979-07-07 09:18:24.520 ,5,0,0.,4.8,1184.,4.8,136.,4.8,41.,4.8
1979-07-07 09:18:29.320 ,5,0,7.,4.8,4608.,4.8,624.,4.8,144.,4.8
1979-07-07 09:18:34.120 ,5,0,3.,4.8,4736.,4.8,736.,4.8,180.,4.8
1979-07-07 09:18:38.920 ,5,0,1.,4.8,4864.,4.8,736.,4.8,204.,4.8
1979-07-07 09:18:43.720 ,5,0,3.,4.8,4736.,4.8,736.,4.8,196.,4.8
1979-07-07 09:18:48.520 ,5,0,5.,4.8,4608.,4.8,720.,4.8,184.,4.8
1979-07-07 09:18:53.320 ,5,0,4.,4.8,4736.,4.8,704.,4.8,192.,4.8
1979-07-07 09:18:58.120 ,5,0,4.,4.8,4992.,4.8,736.,4.8,204.,4.8
1979-07-07 09:19:02.920 ,5,0,11.,4.8,4864.,4.8,704.,4.8,176.,4.8
1979-07-07 09:19:07.720 ,5,0,7.,4.8,4736.,4.8,608.,4.8,208.,4.8
1979-07-07 09:19:12.520 ,4,0,2.,4.8,4736.,4.8,704.,4.8,184.,4.8
1979-07-07 09:19:17.320 ,4,0,6.,4.8,4864.,4.8,640.,4.8,208.,4.8
1979-07-07 09:19:22.120 ,4,0,2.,4.8,3584.,4.8,592.,4.8,168.,4.8
1979-07-07 09:19:26.920 ,4,0,2.,4.8,3520.,4.8,640.,4.8,168.,4.8
1979-07-07 09:19:31.720 ,4,0,5.,4.8,3392.,4.8,592.,4.8,152.,4.8
1979-07-07 09:19:36.520 ,4,0,0.,4.8,3328.,4.8,560.,4.8,172.,4.8
1979-07-07 09:19:41.320 ,4,0,3.,4.8,3456.,4.8,528.,4.8,156.,4.8
1979-07-07 09:19:46.120 ,4,0,2.,4.8,3648.,4.8,528.,4.8,160.,4.8
1979-07-07 09:19:50.920 ,4,0,2.,4.8,3584.,4.8,512.,4.8,176.,4.8
1979-07-07 09:19:55.720 ,4,0,2.,4.8,3712.,4.8,560.,4.8,156.,4.8
1979-07-07 09:20:00.520 ,3,0,4.,4.8,3712.,4.8,528.,4.8,148.,4.8
1979-07-07 09:20:05.320 ,3,0,4.,4.8,3840.,4.8,576.,4.8,156.,4.8
1979-07-07 09:20:10.120 ,3,0,1.,4.8,2560.,4.8,432.,4.8,124.,4.8
1979-07-07 09:20:14.920 ,3,0,1.,4.8,2688.,4.8,424.,4.8,122.,4.8
1979-07-07 09:20:19.720 ,3,0,5.,4.8,2496.,4.8,408.,4.8,128.,4.8
1979-07-07 09:20:24.520 ,3,0,1.,4.8,2560.,4.8,400.,4.8,106.,4.8
1979-07-07 09:20:29.320 ,3,0,4.,4.8,2496.,4.8,416.,4.8,114.,4.8
1979-07-07 09:20:34.120 ,3,0,1.,4.8,2560.,4.8,400.,4.8,106.,4.8
1979-07-07 09:20:38.920 ,3,0,2.,4.8,2560.,4.8,416.,4.8,120.,4.8
1979-07-07 09:20:43.720 ,3,0,2.,4.8,2560.,4.8,392.,4.8,102.,4.8
1979-07-07 09:20:48.520 ,2,0,1.,4.8,2560.,4.8,416.,4.8,126.,4.8
1979-07-07 09:20:53.320 ,2,0,6.,4.8,2560.,4.8,416.,4.8,110.,4.8
1979-07-07 09:20:58.120 ,2,0,1.,4.8,1504.,4.8,196.,4.8,51.,4.8
1979-07-07 09:21:02.920 ,2,0,1.,4.8,1472.,4.8,176.,4.8,53.,4.8
1979-07-07 09:21:07.720 ,2,0,0.,4.8,1472.,4.8,172.,4.8,58.,4.8
1979-07-07 09:21:12.520 ,2,0,1.,4.8,1440.,4.8,180.,4.8,36.,4.8
1979-07-07 09:21:17.320 ,2,0,1.,4.8,1440.,4.8,172.,4.8,51.,4.8
1979-07-07 09:21:22.120 ,2,0,1.,4.8,1504.,4.8,164.,4.8,35.,4.8
1979-07-07 09:21:26.920 ,2,0,1.,4.8,1440.,4.8,176.,4.8,45.,4.8
1979-07-07 09:21:31.720 ,2,0,0.,4.8,1472.,4.8,172.,4.8,47.,4.8
1979-07-07 09:21:36.520 ,1,0,2.,4.8,1472.,4.8,164.,4.8,32.,4.8
1979-07-07 09:21:41.320 ,1,0,1.,4.8,1408.,4.8,176.,4.8,37.,4.8
1979-07-07 09:21:46.120 ,1,0,0.,4.8,1216.,4.8,148.,4.8,46.,4.8
1979-07-07 09:21:50.920 ,1,0,1.,4.8,1152.,4.8,180.,4.8,27.,4.8
1979-07-07 09:21:55.720 ,1,0,0.,4.8,1184.,4.8,148.,4.8,42.,4.8
1979-07-07 09:22:00.520 ,1,0,0.,4.8,1120.,4.8,148.,4.8,37.,4.8
1979-07-07 09:22:05.320 ,1,0,1.,4.8,1184.,4.8,156.,4.8,36.,4.8
1979-07-07 09:22:10.120 ,1,0,0.,4.8,1216.,4.8,160.,4.8,36.,4.8
1979-07-07 09:22:14.920 ,1,0,1.,4.8,1248.,4.8,132.,4.8,44.,4.8
1979-07-07 09:22:19.720 ,1,0,0.,4.8,1216.,4.8,156.,4.8,38.,4.8
1979-07-07 09:22:24.520 ,0,0,0.,4.8,1216.,4.8,140.,4.8,32.,4.8
1979-07-07 09:22:29.320 ,0,0,2.,4.8,1216.,4.8,156.,4.8,36.,4.8
1979-07-07 09:22:34.120 ,0,0,4.,4.8,1632.,4.8,196.,4.8,53.,4.8
1979-07-07 09:22:38.920 ,0,0,1.,4.8,1664.,4.8,248.,4.8,70.,4.8
1979-07-07 09:22:43.720 ,0,0,1.,4.8,1760.,4.8,224.,4.8,56.,4.8
1979-07-07 09:22:48.520 ,0,0,0.,4.8,1696.,4.8,240.,4.8,70.,4.8
1979-07-07 09:22:53.320 ,0,0,0.,4.8,1696.,4.8,200.,4.8,56.,4.8
1979-07-07 09:22:58.120 ,0,0,2.,4.8,1664.,4.8,216.,4.8,62.,4.8
1979-07-07 09:23:02.920 ,0,0,0.,4.8,1696.,4.8,228.,4.8,50.,4.8
1979-07-07 09:23:07.720 ,0,0,2.,4.8,1760.,4.8,252.,4.8,56.,4.8
1979-07-07 09:23:12.520 ,0,0,1.,4.8,1664.,4.8,236.,4.8,63.,4.8
1979-07-07 09:23:17.320 ,0,0,0.,4.8,1696.,4.8,232.,4.8,62.,4.8
1979-07-07 09:23:22.120 ,0,0,3.,4.8,1696.,4.8,212.,4.8,58.,4.8
1979-07-07 09:23:26.920 ,0,0,3.,4.8,1728.,4.8,208.,4.8,52.,4.8
1979-07-07 09:23:31.720 ,0,0,1.,4.8,1728.,4.8,188.,4.8,44.,4.8
1979-07-07 09:23:36.520 ,0,0,1.,4.8,1792.,4.8,204.,4.8,58.,4.8
1979-07-07 09:23:41.320 ,0,0,1.,4.8,1696.,4.8,212.,4.8,48.,4.8
1979-07-07 09:23:46.120 ,0,0,0.,4.8,1696.,4.8,208.,4.8,48.,4.8
1979-07-07 09:23:50.920 ,0,0,1.,4.8,1728.,4.8,192.,4.8,66.,4.8
1979-07-07 09:23:55.720 ,0,0,1.,4.8,1696.,4.8,196.,4.8,54.,4.8
1979-07-07 09:24:00.520 ,1,0,0.,4.8,1728.,4.8,208.,4.8,57.,4.8
1979-07-07 09:24:05.320 ,1,0,1.,4.8,1568.,4.8,192.,4.8,55.,4.8
1979-07-07 09:24:10.120 ,1,0,1.,4.8,1376.,4.8,152.,4.8,52.,4.8
1979-07-07 09:24:14.920 ,1,0,0.,4.8,1408.,4.8,144.,4.8,50.,4.8
1979-07-07 09:24:19.720 ,1,0,2.,4.8,1408.,4.8,172.,4.8,36.,4.8
1979-07-07 09:24:24.520 ,1,0,1.,4.8,1376.,4.8,156.,4.8,43.,4.8
1979-07-07 09:24:29.320 ,1,0,2.,4.8,1408.,4.8,164.,4.8,44.,4.8
1979-07-07 09:24:34.120 ,1,0,1.,4.8,1344.,4.8,168.,4.8,46.,4.8
1979-07-07 09:24:38.920 ,1,0,3.,4.8,1376.,4.8,144.,4.8,43.,4.8
1979-07-07 09:24:43.720 ,1,0,0.,4.8,1472.,4.8,164.,4.8,61.,4.8
1979-07-07 09:24:48.520 ,2,0,1.,4.8,1408.,4.8,168.,4.8,39.,4.8
1979-07-07 09:24:53.320 ,2,0,1.,4.8,1376.,4.8,160.,4.8,42.,4.8
1979-07-07 09:24:58.120 ,2,0,0.,4.8,1440.,4.8,180.,4.8,42.,4.8
1979-07-07 09:25:02.920 ,2,0,2.,4.8,1312.,4.8,128.,4.8,35.,4.8
1979-07-07 09:25:07.720 ,2,0,2.,4.8,1248.,4.8,176.,4.8,36.,4.8
1979-07-07 09:25:12.520 ,2,0,3.,4.8,1184.,4.8,164.,4.8,39.,4.8
1979-07-07 09:25:17.320 ,2,0,0.,4.8,1248.,4.8,168.,4.8,38.,4.8
1979-07-07 09:25:22.120 ,2,0,1.,4.8,1216.,4.8,164.,4.8,38.,4.8
1979-07-07 09:25:26.920 ,2,0,1.,4.8,1152.,4.8,184.,4.8,36.,4.8
1979-07-07 09:25:31.720 ,2,0,0.,4.8,1184.,4.8,176.,4.8,50.,4.8
1979-07-07 09:25:36.520 ,3,0,0.,4.8,1120.,4.8,152.,4.8,49.,4.8
1979-07-07 09:25:41.320 ,3,0,2.,4.8,1120.,4.8,164.,4.8,48.,4.8
1979-07-07 09:25:46.120 ,3,0,1.,4.8,1600.,4.8,208.,4.8,72.,4.8
1979-07-07 09:25:50.920 ,3,0,0.,4.8,1568.,4.8,212.,4.8,68.,4.8
1979-07-07 09:25:55.720 ,3,0,0.,4.8,1472.,4.8,248.,4.8,60.,4.8
1979-07-07 09:26:00.520 ,3,0,0.,4.8,1536.,4.8,228.,4.8,74.,4.8
1979-07-07 09:26:05.320 ,3,0,0.,4.8,1504.,4.8,220.,4.8,59.,4.8
1979-07-07 09:26:10.120 ,3,0,3.,4.8,1568.,4.8,220.,4.8,50.,4.8
1979-07-07 09:26:14.920 ,3,0,0.,4.8,1568.,4.8,172.,4.8,52.,4.8
1979-07-07 09:26:19.720 ,3,0,1.,4.8,1472.,4.8,208.,4.8,70.,4.8
1979-07-07 09:26:24.520 ,4,0,1.,4.8,1472.,4.8,188.,4.8,68.,4.8
1979-07-07 09:26:29.320 ,4,0,0.,4.8,1472.,4.8,204.,4.8,58.,4.8
1979-07-07 09:26:34.120 ,4,0,3.,4.8,2112.,4.8,264.,4.8,84.,4.8
1979-07-07 09:26:38.920 ,4,0,1.,4.8,2176.,4.8,264.,4.8,72.,4.8
1979-07-07 09:26:43.720 ,4,0,2.,4.8,2112.,4.8,264.,4.8,66.,4.8
1979-07-07 09:26:48.520 ,4,0,3.,4.8,2112.,4.8,264.,4.8,70.,4.8
1979-07-07 09:26:53.320 ,4,0,3.,4.8,2176.,4.8,264.,4.8,76.,4.8
1979-07-07 09:26:58.120 ,4,0,0.,4.8,2176.,4.8,272.,4.8,72.,4.8
1979-07-07 09:27:02.920 ,4,0,1.,4.8,2112.,4.8,264.,4.8,80.,4.8
1979-07-07 09:27:07.720 ,4,0,1.,4.8,2112.,4.8,264.,4.8,63.,4.8
1979-07-07 09:27:12.520 ,5,0,8.,4.8,2048.,4.8,272.,4.8,76.,4.8
1979-07-07 09:27:17.320 ,5,0,2.,4.8,2112.,4.8,272.,4.8,63.,4.8
1979-07-07 09:27:22.120 ,5,0,2.,4.8,2880.,4.8,336.,4.8,76.,4.8
1979-07-07 09:27:26.920 ,5,0,1.,4.8,2880.,4.8,336.,4.8,86.,4.8
1979-07-07 09:27:31.720 ,5,0,0.,4.8,2944.,4.8,304.,4.8,86.,4.8
1979-07-07 09:27:36.520 ,5,0,2.,4.8,2944.,4.8,328.,4.8,86.,4.8
1979-07-07 09:27:41.320 ,5,0,5.,4.8,2688.,4.8,344.,4.8,86.,4.8
1979-07-07 09:27:46.120 ,5,0,0.,4.8,2816.,4.8,320.,4.8,78.,4.8
1979-07-07 09:27:50.920 ,5,0,3.,4.8,2752.,4.8,360.,4.8,86.,4.8
1979-07-07 09:27:55.720 ,5,0,0.,4.8,2560.,4.8,312.,4.8,86.,4.8
1979-07-07 09:28:00.520 ,6,0,1.,4.8,2624.,4.8,344.,4.8,92.,4.8
1979-07-07 09:28:05.320 ,6,0,2.,4.8,2624.,4.8,312.,4.8,80.,4.8
1979-07-07 09:28:10.120 ,6,0,3.,4.8,2944.,4.8,344.,4.8,88.,4.8
1979-07-07 09:28:14.920 ,6,0,3.,4.8,2816.,4.8,312.,4.8,102.,4.8
1979-07-07 09:28:19.720 ,6,0,2.,4.8,2752.,4.8,304.,4.8,92.,4.8
1979-07-07 09:28:24.520 ,6,0,2.,4.8,2944.,4.8,360.,4.8,80.,4.8
1979-07-07 09:28:29.320 ,6,0,3.,4.8,2944.,4.8,320.,4.8,106.,4.8
1979-07-07 09:28:34.120 ,6,0,2.,4.8,2880.,4.8,384.,4.8,90.,4.8
1979-07-07 09:28:38.920 ,6,0,2.,4.8,3008.,4.8,328.,4.8,90.,4.8
1979-07-07 09:28:43.720 ,6,0,3.,4.8,2944.,4.8,352.,4.8,84.,4.8
1979-07-07 09:28:48.520 ,7,0,1.,4.8,2880.,4.8,344.,4.8,74.,4.8
1979-07-07 09:28:53.320 ,7,0,2.,4.8,2944.,4.8,352.,4.8,90.,4.8
1979-07-07 09:28:58.120 ,7,0,0.,4.8,78.,4.8,2.,4.8,1.,4.8
1979-07-07 09:29:02.920 ,7,0,0.,4.8,47.,4.8,1.,4.8,0.,4.8
1979-07-07 09:29:07.720 ,7,0,0.,4.8,41.,4.8,1.,4.8,0.,4.8
1979-07-07 09:29:12.520 ,7,0,0.,4.8,39.,4.8,0.,4.8,1.,4.8
1979-07-07 09:29:17.320 ,7,0,0.,4.8,46.,4.8,0.,4.8,0.,4.8
1979-07-07 09:29:22.120 ,7,0,0.,4.8,40.,4.8,0.,4.8,0.,4.8
1979-07-07 09:29:26.920 ,7,0,0.,4.8,43.,4.8,0.,4.8,0.,4.8
1979-07-07 09:29:31.720 ,7,0,0.,4.8,44.,4.8,0.,4.8,0.,4.8
1979-07-07 09:29:36.520 ,7,0,0.,4.8,44.,4.8,1.,4.8,0.,4.8
1979-07-07 09:29:41.320 ,7,0,0.,4.8,33.,4.8,1.,4.8,1.,4.8
1979-07-07 09:29:46.120 ,7,0,0.,4.8,45.,4.8,2.,4.8,0.,4.8
1979-07-07 09:29:50.920 ,7,0,0.,4.8,41.,4.8,0.,4.8,0.,4.8
1979-07-07 09:29:55.720 ,7,0,0.,4.8,39.,4.8,0.,4.8,0.,4.8
1979-07-07 09:30:00.520 ,7,0,0.,4.8,58.,4.8,2.,4.8,0.,4.8
1979-07-07 09:30:05.320 ,7,0,0.,4.8,37.,4.8,1.,4.8,0.,4.8
1979-07-07 09:30:10.120 ,7,0,0.,4.8,42.,4.8,0.,4.8,0.,4.8
1979-07-07 09:30:14.920 ,7,0,0.,4.8,48.,4.8,1.,4.8,0.,4.8
1979-07-07 09:30:19.720 ,7,0,0.,4.8,35.,4.8,2.,4.8,0.,4.8
1979-07-07 09:30:24.520 ,6,0,0.,4.8,40.,4.8,0.,4.8,0.,4.8
1979-07-07 09:30:29.320 ,6,0,0.,4.8,59.,4.8,1.,4.8,0.,4.8